Weather History for KCEF - October, 2013

Change the Weather History Date:

Monday, October 14, 2013

  Actual Average Record
Temperature  
Mean Temperature 51 °F -  
Max Temperature 67 °F 59 °F 80 °F (2000)
Min Temperature 35 °F 38 °F 26 °F (2006)
Degree Days  
Heating Degree Days 14    
Growing Degree Days 1 (Base 50)    
Moisture  
Dew Point 40 °F    
Average Humidity 95    
Maximum Humidity 100    
Minimum Humidity 45    
Precipitation  
Precipitation 0.00 in - - ()
Sea Level Pressure  
Sea Level Pressure 30.36 in    
Wind  
Wind Speed 2 mph (NE)    
Max Wind Speed 7 mph    
Max Gust Speed -    
Visibility 3 miles    
Events Fog    
Averages and records for this station are not official NWS values.
T = Trace of Precipitation, MM = Missing Value Source: NWS Daily Summary

Daily Weather History Graph

Daily Weather History Graph

Search for Another Location

Airport or City:

Trip Planner

Search our weather history database for the weather conditions in past years. The results will help you decide how hot, cold, wet, or windy it might be!

Date:

Astronomy

Oct. 14, 2013 Rise Set
Actual Time 7:01 AM EDT 6:09 PM EDT
Civil Twilight 6:33 AM EDT 6:37 PM EDT
Nautical Twilight 6:01 AM EDT 7:10 PM EDT
Astronomical Twilight 5:28 AM EDT 7:42 PM EDT
Moon 3:41 PM EDT (10/14) 2:10 AM EDT (10/14)
Length of Visible Light 12h 04m
Length of Day
11h 07m
Waxing Gibbous, 79% of the Moon is Illuminated
Oct 14
Waxing Gibbous
Oct 18
Full
Oct 26
Last Quarter
Nov 3
New
Nov 10
First Quarter

Hourly Weather History & Observations

Time (EDT) Temp. Windchill Dew Point Humidity Pressure Visibility Wind Dir Wind Speed Gust Speed Precip Events Conditions
12:44 AM 50.0 °F - 48.2 °F 94% 30.39 in 10.0 mi ESE 3.5 mph - N/A   Mostly Cloudy
12:58 AM 50.0 °F - 46.8 °F 89% 30.41 in 10.0 mi Variable 2.3 mph - N/A   Mostly Cloudy
1:47 AM 46.4 °F - 46.4 °F 100% 30.38 in 10.0 mi Calm Calm - N/A   Scattered Clouds
1:58 AM 46.6 °F - 46.2 °F 99% 30.40 in 10.0 mi Calm Calm - N/A   Partly Cloudy
2:32 AM 42.8 °F - 42.8 °F 100% 30.37 in 2.5 mi NNE 1.2 mph - N/A   Clear
2:33 AM 42.8 °F - 42.8 °F 100% 30.37 in 1.5 mi North 1.2 mph - N/A   Clear
2:34 AM 42.8 °F - 42.8 °F 100% 30.37 in 1.2 mi NNE 1.2 mph - N/A   Clear
2:35 AM 42.8 °F - 42.8 °F 100% 30.37 in 1.0 mi NNE 2.3 mph - N/A   Clear
2:36 AM 42.8 °F - 42.8 °F 100% 30.37 in 0.8 mi NE 2.3 mph - N/A   Clear
2:37 AM 42.8 °F - 42.8 °F 100% 30.37 in 0.8 mi NE 2.3 mph - N/A   Clear
2:38 AM 42.8 °F - 42.8 °F 100% 30.37 in 0.5 mi NE 2.3 mph - N/A Fog Fog
2:42 AM 42.8 °F - 42.8 °F 100% 30.37 in 0.8 mi NE 2.3 mph - N/A   Clear
2:43 AM 42.8 °F - 42.8 °F 100% 30.37 in 0.8 mi NE 2.3 mph - N/A   Clear
2:44 AM 42.8 °F - 42.8 °F 100% 30.37 in 0.8 mi NE 2.3 mph - N/A   Clear
2:45 AM 42.8 °F - 42.8 °F 100% 30.37 in 1.0 mi NE 2.3 mph - N/A   Clear
2:46 AM 42.8 °F - 42.8 °F 100% 30.37 in 1.0 mi NE 2.3 mph - N/A   Clear
2:47 AM 42.8 °F - 41.0 °F 93% 30.37 in 1.2 mi ENE 2.3 mph - N/A   Clear
2:48 AM 41.0 °F - 41.0 °F 100% 30.37 in 1.8 mi ENE 2.3 mph - N/A   Clear
2:50 AM 41.0 °F - 41.0 °F 100% 30.37 in 1.5 mi ENE 2.3 mph - N/A   Clear
2:51 AM 41.0 °F - 39.2 °F 93% 30.37 in 1.2 mi ENE 2.3 mph - N/A   Clear
2:52 AM 41.0 °F - 39.2 °F 93% 30.37 in 1.2 mi ENE 2.3 mph - N/A   Clear
2:56 AM 41.0 °F - 39.2 °F 93% 30.37 in 1.2 mi ENE 2.3 mph - N/A   Clear
2:57 AM 41.0 °F - 39.2 °F 93% 30.37 in 1.5 mi ENE 2.3 mph - N/A   Clear
2:58 AM 41.0 °F - 39.2 °F 93% 30.39 in 1.8 mi ENE 2.3 mph - N/A   Clear
2:59 AM 41.0 °F - 39.2 °F 93% 30.37 in 2.0 mi East 2.3 mph - N/A   Clear
3:00 AM 41.0 °F - 39.2 °F 93% 30.37 in 3.0 mi East 1.2 mph - N/A   Clear
3:07 AM 39.2 °F - 39.2 °F 100% 30.37 in 2.5 mi Calm Calm - N/A   Clear
3:08 AM 39.2 °F - 39.2 °F 100% 30.37 in 1.8 mi Calm Calm - N/A   Clear
3:09 AM 39.2 °F - 39.2 °F 100% 30.37 in 1.2 mi Calm Calm - N/A   Clear
3:10 AM 39.2 °F - 39.2 °F 100% 30.37 in 1.0 mi Calm Calm - N/A   Clear
3:11 AM 39.2 °F - 39.2 °F 100% 30.36 in 1.0 mi Calm Calm - N/A   Clear
3:12 AM 39.2 °F - 39.2 °F 100% 30.36 in 0.8 mi Calm Calm - N/A   Clear
3:13 AM 39.2 °F - 39.2 °F 100% 30.36 in 0.8 mi Calm Calm - N/A   Clear
3:14 AM 39.2 °F - 39.2 °F 100% 30.36 in 0.5 mi Calm Calm - N/A Fog Fog
3:17 AM 39.2 °F - 39.2 °F 100% 30.36 in 0.5 mi Variable 1.2 mph - N/A Fog Fog
3:24 AM 39.2 °F 37.0 °F 39.2 °F 100% 30.36 in 0.5 mi NE 3.5 mph - N/A Fog Fog
3:27 AM 39.2 °F 37.0 °F 39.2 °F 100% 30.36 in 0.8 mi NE 3.5 mph - N/A   Clear
3:38 AM 39.2 °F - 39.2 °F 100% 30.36 in 0.5 mi NE 2.3 mph - N/A Fog Fog
3:42 AM 39.2 °F - 39.2 °F 100% 30.36 in 0.5 mi NNE 2.3 mph - N/A Fog Fog
3:45 AM 39.2 °F - 39.2 °F 100% 30.36 in 0.5 mi NNE 2.3 mph - N/A Fog Fog
3:47 AM 39.2 °F - 37.4 °F 93% 30.36 in 0.2 mi NNE 2.3 mph - N/A Fog Fog
3:49 AM 39.2 °F - 37.4 °F 93% 30.36 in 0.2 mi NNE 2.3 mph - N/A Fog Fog
3:53 AM 37.4 °F - 37.4 °F 100% 30.36 in 0.2 mi NNE 2.3 mph - N/A Fog Fog
3:56 AM 37.4 °F - 37.4 °F 100% 30.37 in 0.2 mi ENE 2.3 mph - N/A Fog Fog
3:57 AM 37.4 °F 34.9 °F 37.4 °F 100% 30.37 in 0.5 mi ENE 3.5 mph - N/A Fog Fog
3:58 AM 37.4 °F - 37.4 °F 100% 30.39 in 0.5 mi ENE 2.3 mph - N/A Fog Fog
3:59 AM 39.2 °F - 37.4 °F 93% 30.37 in 0.5 mi ENE 2.3 mph - N/A Fog Fog
4:11 AM 39.2 °F - 39.2 °F 100% 30.37 in 0.5 mi ENE 1.2 mph - N/A Fog Fog
4:12 AM 39.2 °F - 39.2 °F 100% 30.37 in 0.5 mi ENE 1.2 mph - N/A Fog Fog
4:15 AM 39.2 °F - 39.2 °F 100% 30.36 in 0.8 mi NE 1.2 mph - N/A   Clear
4:16 AM 39.2 °F - 39.2 °F 100% 30.37 in 0.8 mi NE 2.3 mph - N/A   Clear
4:17 AM 39.2 °F - 39.2 °F 100% 30.37 in 1.0 mi NE 1.2 mph - N/A   Clear
4:18 AM 39.2 °F - 37.4 °F 93% 30.37 in 1.0 mi NE 1.2 mph - N/A   Clear
4:19 AM 39.2 °F - 37.4 °F 93% 30.37 in 1.2 mi NE 1.2 mph - N/A   Clear
4:24 AM 37.4 °F - 37.4 °F 100% 30.37 in 1.0 mi Calm Calm - N/A   Clear
4:25 AM 37.4 °F - 37.4 °F 100% 30.37 in 1.0 mi Calm Calm - N/A   Clear
4:26 AM 37.4 °F - 37.4 °F 100% 30.37 in 0.8 mi Calm Calm - N/A   Clear
4:29 AM 39.2 °F - 37.4 °F 93% 30.37 in 0.5 mi NNE 1.2 mph - N/A Fog Fog
4:36 AM 37.4 °F - 37.4 °F 100% 30.36 in 0.8 mi NNE 2.3 mph - N/A   Clear
4:38 AM 37.4 °F - 37.4 °F 100% 30.36 in 0.8 mi NNE 2.3 mph - N/A   Clear
4:41 AM 37.4 °F - 37.4 °F 100% 30.37 in 0.8 mi NE 2.3 mph - N/A   Clear
4:43 AM 37.4 °F - 37.4 °F 100% 30.37 in 0.5 mi ENE 1.2 mph - N/A Fog Fog
4:48 AM 37.4 °F - 37.4 °F 100% 30.36 in 0.8 mi Calm Calm - N/A   Clear
4:49 AM 37.4 °F - 37.4 °F 100% 30.36 in 0.8 mi Calm Calm - N/A   Clear
4:50 AM 39.2 °F - 37.4 °F 93% 30.36 in 1.0 mi Calm Calm - N/A   Clear
4:51 AM 39.2 °F - 37.4 °F 93% 30.36 in 1.2 mi Calm Calm - N/A   Clear
4:56 AM 37.4 °F - 37.4 °F 100% 30.36 in 1.2 mi Calm Calm - N/A   Clear
4:57 AM 37.4 °F - 37.4 °F 100% 30.36 in 1.0 mi Calm Calm - N/A   Clear
4:58 AM 37.4 °F - 37.4 °F 100% 30.38 in 1.0 mi Calm Calm - 0.00 in   Clear
5:01 AM 37.4 °F - 37.4 °F 100% 30.36 in 1.0 mi Calm Calm - N/A   Clear
5:02 AM 37.4 °F - 37.4 °F 100% 30.36 in 1.2 mi Calm Calm - N/A   Clear
5:12 AM 37.4 °F - 37.4 °F 100% 30.36 in 1.2 mi Calm Calm - N/A   Clear
5:13 AM 37.4 °F - 37.4 °F 100% 30.36 in 1.0 mi Calm Calm - N/A   Clear
5:18 AM 37.4 °F - 37.4 °F 100% 30.36 in 1.0 mi Calm Calm - N/A   Clear
5:19 AM 37.4 °F - 37.4 °F 100% 30.36 in 1.0 mi Calm Calm - N/A   Clear
5:21 AM 37.4 °F - 37.4 °F 100% 30.36 in 0.8 mi Calm Calm - N/A   Clear
5:22 AM 37.4 °F - 37.4 °F 100% 30.36 in 1.0 mi Variable 1.2 mph - N/A   Clear
5:23 AM 37.4 °F - 37.4 °F 100% 30.36 in 1.0 mi WNW 2.3 mph - N/A   Clear
5:24 AM 37.4 °F - 37.4 °F 100% 30.36 in 1.2 mi NW 1.2 mph - N/A   Clear
5:25 AM 37.4 °F - 37.4 °F 100% 30.36 in 1.5 mi NNW 1.2 mph - N/A   Clear
5:26 AM 39.2 °F - 37.4 °F 93% 30.36 in 2.0 mi Calm Calm - N/A   Clear
5:27 AM 39.2 °F - 39.2 °F 100% 30.36 in 2.5 mi Calm Calm - N/A   Clear
5:28 AM 39.2 °F - 39.2 °F 100% 30.36 in 3.0 mi Calm Calm - N/A   Clear
5:35 AM 37.4 °F - 37.4 °F 100% 30.36 in 2.5 mi Calm Calm - N/A   Clear
5:36 AM 37.4 °F - 37.4 °F 100% 30.36 in 1.5 mi Calm Calm - N/A   Clear
5:37 AM 37.4 °F - 37.4 °F 100% 30.36 in 1.2 mi Calm Calm - N/A   Clear
5:38 AM 37.4 °F - 37.4 °F 100% 30.36 in 1.0 mi Calm Calm - N/A   Clear
5:39 AM 37.4 °F - 37.4 °F 100% 30.36 in 1.0 mi Calm Calm - N/A   Clear
5:41 AM 37.4 °F - 37.4 °F 100% 30.36 in 1.0 mi Calm Calm - N/A   Clear
5:43 AM 37.4 °F - 37.4 °F 100% 30.36 in 1.0 mi Calm Calm - N/A   Clear
5:44 AM 37.4 °F - 37.4 °F 100% 30.36 in 1.0 mi Calm Calm - N/A   Clear
5:46 AM 37.4 °F - 37.4 °F 100% 30.36 in 1.2 mi Calm Calm - N/A   Clear
5:47 AM 37.4 °F - 37.4 °F 100% 30.36 in 1.5 mi Calm Calm - N/A   Clear
5:50 AM 37.4 °F - 37.4 °F 100% 30.36 in 1.2 mi Calm Calm - N/A   Clear
5:51 AM 37.4 °F - 37.4 °F 100% 30.36 in 1.2 mi Calm Calm - N/A   Clear
5:53 AM 37.4 °F - 37.4 °F 100% 30.36 in 1.0 mi Calm Calm - N/A   Clear
5:54 AM 37.4 °F - 37.4 °F 100% 30.36 in 1.0 mi Calm Calm - N/A   Clear
5:55 AM 37.4 °F - 37.4 °F 100% 30.36 in 0.8 mi Calm Calm - N/A   Clear
5:58 AM 38.1 °F - 37.9 °F 99% 30.38 in 0.8 mi Calm Calm - N/A   Clear
5:59 AM 37.4 °F - 37.4 °F 100% 30.36 in 1.0 mi Calm Calm - N/A   Clear
6:00 AM 37.4 °F - 37.4 °F 100% 30.36 in 1.0 mi Calm Calm - N/A   Clear
6:01 AM 37.4 °F - 37.4 °F 100% 30.36 in 1.2 mi Calm Calm - N/A   Clear
6:03 AM 37.4 °F - 37.4 °F 100% 30.36 in 1.8 mi Calm Calm - N/A   Clear
6:04 AM 37.4 °F - 37.4 °F 100% 30.36 in 2.5 mi Calm Calm - N/A   Clear
6:05 AM 37.4 °F - 37.4 °F 100% 30.36 in 4.0 mi Calm Calm - N/A   Clear
6:11 AM 37.4 °F - 37.4 °F 100% 30.36 in 2.5 mi Calm Calm - N/A   Clear
6:12 AM 37.4 °F - 37.4 °F 100% 30.36 in 1.8 mi Calm Calm - N/A   Clear
6:13 AM 37.4 °F - 37.4 °F 100% 30.36 in 1.2 mi North 1.2 mph - N/A   Clear
6:14 AM 37.4 °F - 37.4 °F 100% 30.36 in 0.8 mi NNE 1.2 mph - N/A   Clear
6:15 AM 37.4 °F - 37.4 °F 100% 30.36 in 0.8 mi Calm Calm - N/A   Clear
6:16 AM 37.4 °F - 37.4 °F 100% 30.36 in 0.8 mi Calm Calm - N/A   Clear
6:17 AM 37.4 °F - 37.4 °F 100% 30.36 in 0.5 mi North 1.2 mph - N/A Fog Fog
6:20 AM 37.4 °F - 37.4 °F 100% 30.36 in 0.5 mi NNE 2.3 mph - N/A Fog Fog
6:28 AM 35.6 °F - 35.6 °F 100% 30.36 in 0.5 mi NNE 1.2 mph - N/A Fog Fog
6:31 AM 35.6 °F - 35.6 °F 100% 30.36 in 0.8 mi Calm Calm - N/A   Clear
6:34 AM 35.6 °F - 35.6 °F 100% 30.36 in 1.0 mi NNE 1.2 mph - N/A   Clear
6:35 AM 37.4 °F - 35.6 °F 93% 30.36 in 1.0 mi NNE 1.2 mph - N/A   Clear
6:36 AM 37.4 °F - 35.6 °F 93% 30.36 in 1.0 mi NNE 1.2 mph - N/A   Clear
6:38 AM 37.4 °F - 37.4 °F 100% 30.36 in 0.8 mi NNE 1.2 mph - N/A   Clear
6:39 AM 37.4 °F - 35.6 °F 93% 30.36 in 0.8 mi North 1.2 mph - N/A   Clear
6:41 AM 35.6 °F - 35.6 °F 100% 30.36 in 0.5 mi North 1.2 mph - N/A Fog Fog
6:45 AM 37.4 °F - 35.6 °F 93% 30.37 in 0.8 mi NNW 2.3 mph - N/A   Clear
6:48 AM 37.4 °F - 37.4 °F 100% 30.37 in 0.8 mi NW 2.3 mph - N/A   Clear
6:49 AM 37.4 °F 34.9 °F 37.4 °F 100% 30.37 in 0.8 mi NW 3.5 mph - N/A   Clear
6:50 AM 37.4 °F 34.9 °F 37.4 °F 100% 30.37 in 1.0 mi NW 3.5 mph - N/A   Clear
6:51 AM 37.4 °F 33.8 °F 35.6 °F 93% 30.37 in 1.0 mi NW 4.6 mph - N/A   Clear
6:52 AM 35.6 °F 30.7 °F 35.6 °F 100% 30.37 in 0.8 mi NW 5.8 mph - N/A   Clear
6:54 AM 35.6 °F 30.7 °F 35.6 °F 100% 30.37 in 1.0 mi NW 5.8 mph - N/A   Clear
6:58 AM 35.8 °F - 35.6 °F 99% 30.40 in 10.0 mi NNW 2.3 mph - N/A Fog Shallow Fog
7:58 AM 36.9 °F - 36.5 °F 99% 30.40 in 9.0 mi Calm Calm - N/A   Partly Cloudy
8:58 AM 44.1 °F - 43.9 °F 99% 30.39 in 10.0 mi Calm Calm - N/A   Partly Cloudy
9:58 AM 51.1 °F - 47.1 °F 86% 30.39 in 10.0 mi South 3.5 mph - N/A   Partly Cloudy
10:58 AM 54.9 °F - 46.6 °F 74% 30.37 in 10.0 mi Variable 2.3 mph - N/A   Clear
11:58 AM 58.1 °F - 46.8 °F 66% 30.35 in 10.0 mi Variable 1.2 mph - N/A   Clear
11:59 AM 57.2 °F - 46.4 °F 67% 30.33 in 10.0 mi Variable 1.2 mph - N/A   Light Drizzle
12:58 PM 60.8 °F - 47.5 °F 62% 30.32 in 10.0 mi Variable 2.3 mph - N/A   Scattered Clouds
1:21 PM 62.6 °F - 48.2 °F 59% 30.29 in 10.0 mi Calm Calm - N/A   Light Drizzle
1:32 PM 62.6 °F - 48.2 °F 59% 30.28 in 10.0 mi West 3.5 mph - N/A   Clear
1:58 PM 63.5 °F - 47.3 °F 56% 30.29 in 10.0 mi Variable 3.5 mph - N/A   Scattered Clouds
2:58 PM 66.6 °F - 45.7 °F 47% 30.28 in 10.0 mi SW 4.6 mph - N/A   Scattered Clouds
3:58 PM 67.3 °F - 45.3 °F 45% 30.26 in 10.0 mi SSE 5.8 mph - N/A   Scattered Clouds
4:58 PM 65.3 °F - 44.2 °F 46% 30.25 in 10.0 mi South 6.9 mph - N/A   Clear
5:58 PM 60.8 °F - 47.5 °F 62% 30.27 in 10.0 mi South 4.6 mph - N/A   Partly Cloudy
6:58 PM 56.3 °F - 48.0 °F 74% 30.28 in 10.0 mi South 2.3 mph - N/A   Mostly Cloudy
7:58 PM 50.5 °F - 49.5 °F 96% 30.29 in 10.0 mi NNE 2.3 mph - N/A   Mostly Cloudy
8:58 PM 52.9 °F - 49.6 °F 89% 30.28 in 10.0 mi SSE 6.9 mph - N/A   Overcast
9:58 PM 54.3 °F - 50.4 °F 86% 30.29 in 10.0 mi SSE 4.6 mph - N/A   Overcast
10:58 PM 54.0 °F - 50.0 °F 86% 30.29 in 10.0 mi Calm Calm - N/A   Overcast
11:58 PM 52.5 °F - 50.4 °F 92% 30.29 in 10.0 mi NNE 2.3 mph - N/A   Overcast